Location: Lombard
(41.8800°N, 88.0080°W)
Time: 03:37:11
(UTC-05:00)

Vanguard 3 - Pass Details

Date: 06 February 2023
Orbit: 508 x 3249 km, 33.4° (Epoch: 31 March)

Event Time Altitude Azimuth Distance (km) Brightness Sun altitude
Rises 17:53:26 0° 236° (SW) 3,648 12.0 -7.9°
Reaches altitude 10° 17:55:41 10° 229° (SW) 2,960 11.1 -8.4°
Maximum altitude 18:02:45 45° 159° (SSE) 2,065 9.1 -9.6°
Enters shadow 18:14:11 12° 94° (E) 4,817 10.5 -11.7°
